Location: American Medical Response
(33.3472°N, 96.5511°W)
Time: 06:55:00
(UTC+00:00)

Meteor 1-31 Rocket - Pass Details

Date: 08 December 2021
Orbit: 519 x 544 km, 97.7° (Epoch: 17 January)

Event Time Altitude Azimuth Distance (km) Brightness Sun altitude
Rises 12:18:45 0° 356° (N) 2,704 6.1 -12.2°
Reaches altitude 10° 12:21:11 10° 342° (NNW) 1,811 5.1 -11.7°
Maximum altitude 12:24:18 23° 289° (WNW) 1,177 3.9 -11.1°
Drops below altitude 10° 12:27:25 10° 235° (SW) 1,806 5.1 -10.5°
Sets 12:29:50 0° 221° (SW) 2,695 6.1 -10.0°
